Flag for U.S.A. Weather past 2 weeks in Cocoa Beach, Florida, U.S.A.

Now
80 °F

Sunny.


Feels Like: 83 °F
Forecast: 76 / 86 °F
Wind: 8 mph from Southwest

Location: Cocoa / Patrick Air Force Base

Current Time: Jul 1, 2015 at 9:22:41 AM

Latest Report: Jul 1, 2015 at 8:58 AM


Visibility: 10 mi

Pressure: 30.17 "Hg

Humidity: 75%

Dew point: 71 °F

Location of Cocoa BeachLocation

Historic Weather in Cocoa Beach — Graph

°F

Cocoa Beach temperature yesterday

Maximum temperature yesterday: 94 °F (at 3:58 PM)
Minimum temperature yesterday: 75 °F (at 4:58 AM)
Average temperature yesterday: 82 °F

Past Weeks' High & Low Weather Summary

 TemperatureHumidityPressure
High94 °F (Jun 28, 2:58 PM)93% (Jun 26, 12:58 AM)30.18 "Hg (Jun 26, 12:58 AM)
Low74 °F (Jul 1, 6:58 AM)42% (Jun 28, 2:58 PM)29.98 "Hg (Jun 28, 6:01 PM)
Average83 °F77%30.10 "Hg
* Reported Jun 16 7:58 AM — Jul 1 7:58 AM, Cocoa Beach, Weather by CustomWeather, © 2015

Note: Actual official high and low records may vary slightly from our data, if they occured in-between our weather recording intervals... More about our weather records

Advertising

Cocoa Beach weather history for previous 24 hours

 ConditionsComfort  
Time TempWeatherWind HumidityBarometerVisibility
7:58 AM
Wed, Jul 1
77 °FSunny.8 mph79%30.17 "Hg10 mi
6:58 AM74 °FClear.5 mph85%30.15 "Hg10 mi
4:58 AM76 °FClear.9 mph82%30.12 "Hg10 mi
3:58 AM76 °FClear.7 mph80%30.12 "Hg10 mi
2:58 AM78 °FClear.13 mph79%30.11 "Hg10 mi
1:58 AM79 °FClear.13 mph75%30.13 "Hg10 mi
12:58 AM79 °FClear.14 mph73%30.12 "Hg10 mi
11:58 PM
Tue, Jun 30
80 °FClear.14 mph67%30.12 "Hg10 mi
10:58 PM83 °FPassing clouds.12 mph55%30.15 "Hg10 mi
9:58 PM83 °FClear.1 mph64%30.11 "Hg10 mi
8:58 PM81 °FPassing clouds.10 mph79%30.08 "Hg10 mi
7:58 PM83 °FScattered clouds.18 mph77%30.08 "Hg10 mi
6:58 PM84 °FPassing clouds.15 mph76%30.06 "Hg10 mi
5:58 PM85 °FSunny.14 mph75%30.06 "Hg10 mi
4:58 PM86 °FPassing clouds.9 mph73%30.07 "Hg10 mi
3:58 PM94 °FSunny.7 mph47%30.06 "Hg10 mi
2:58 PM93 °FSunny.10 mph48%30.07 "Hg10 mi
1:58 PM92 °FPassing clouds.12 mph48%30.10 "Hg10 mi
12:58 PM91 °FPassing clouds.12 mph50%30.12 "Hg10 mi
11:58 AM89 °FSunny.14 mph58%30.13 "Hg10 mi
10:58 AM87 °FSunny.9 mph69%30.14 "Hg10 mi
9:58 AM83 °FSunny.9 mph75%30.14 "Hg10 mi
Weather by CustomWeather, © 2015

See weather overviewHow to use our weather pages